Kosmos-981

operational
NORAD ID: 10588 Int'l Des: 1978-005 Owner: GUKOSR Country: SU
LEOCIRCULAR

About Kosmos-981

Description loading...

Live Position

Loading 3D Globe...

Upcoming Passes

Altitude History

Altitude vs Time

uPlot chart will show altitude changes over time

Two-Line Element Set

1 10588U 78005F 25345.48964970 -.00000009 00000-0 48081-4 0 9993
2 10588 74.0323 13.6435 0019460 55.1272 57.3130 12.46463683176991
Epoch: Dec 11, 2025 • Age: 13 hours

Current Status

Altitude 1499.5 km
Velocity 7.11 km/s
Sub-Earth Point -45.36°S, 90.47°W
Launch Date Jan 10, 1978
Age 47.9 years
Type other

Technical Details

Classification Payload
Mass 60.00 kg
Dry Mass 60.00 kg
Total Mass 60.00 kg
Length 0.80 m
Diameter 0.80 m
Span 0.80 m
Shape Poly
Manufacturer NPOPM
Bus Type Strela-1 11F625
Phase Status In Orbit
Owner/State GUKOSR/SU

Large Constellations

Loading constellations...